TimeEST,TemperatureF,Dew PointF,Humidity,Sea Level PressureIn,VisibilityMPH,Wind Direction,Wind SpeedMPH,Gust SpeedMPH,PrecipitationIn,Events,Conditions,WindDirDegrees,DateUTC
12:35 AM,55.4,55.4,100,30.20,4.0,South,5.8,-,0.01,,Overcast,190,2012-12-03 05:35:00
12:53 AM,55.9,55.0,97,30.20,5.0,SSW,5.8,-,0.01,,Overcast,200,2012-12-03 05:53:00
1:53 AM,55.9,55.0,97,30.20,6.0,South,3.5,-,0.02,,Mostly Cloudy,170,2012-12-03 06:53:00
2:53 AM,55.9,55.0,97,30.21,6.0,South,6.9,-,0.01,,Overcast,190,2012-12-03 07:53:00
3:53 AM,55.9,54.0,93,30.21,8.0,South,3.5,-,0.00,,Overcast,190,2012-12-03 08:53:00
4:53 AM,55.9,54.0,93,30.20,7.0,South,5.8,-,0.00,Rain,Light Rain,180,2012-12-03 09:53:00
5:53 AM,55.9,54.0,93,30.21,7.0,South,3.5,-,0.01,,Overcast,170,2012-12-03 10:53:00
6:53 AM,55.9,53.1,90,30.22,9.0,South,3.5,-,N/A,,Mostly Cloudy,190,2012-12-03 11:53:00
7:34 AM,55.4,53.6,94,30.24,8.0,Calm,Calm,-,N/A,,Overcast,0,2012-12-03 12:34:00
7:53 AM,55.9,54.0,93,30.24,5.0,Calm,Calm,-,N/A,,Overcast,0,2012-12-03 12:53:00
8:53 AM,55.9,54.0,93,30.25,5.0,Calm,Calm,-,N/A,,Overcast,0,2012-12-03 13:53:00
10:43 AM,60.8,53.6,77,30.24,10.0,South,4.6,-,N/A,,Overcast,180,2012-12-03 15:43:00
10:53 AM,61.0,54.0,78,30.24,10.0,South,4.6,-,N/A,,Mostly Cloudy,180,2012-12-03 15:53:00
11:49 AM,62.6,55.4,77,30.21,10.0,SSW,4.6,-,N/A,,Overcast,210,2012-12-03 16:49:00
11:53 AM,63.0,55.0,75,30.21,10.0,SSW,5.8,-,N/A,,Overcast,200,2012-12-03 16:53:00
12:14 PM,64.4,55.4,73,30.21,10.0,SSW,8.1,-,N/A,,Overcast,210,2012-12-03 17:14:00
12:27 PM,64.4,55.4,73,30.20,10.0,SSW,6.9,-,N/A,,Overcast,200,2012-12-03 17:27:00
12:34 PM,64.4,55.4,73,30.20,10.0,SSW,6.9,-,N/A,,Overcast,210,2012-12-03 17:34:00
12:53 PM,64.9,55.0,70,30.19,10.0,SSW,9.2,-,N/A,,Overcast,200,2012-12-03 17:53:00
1:53 PM,63.0,53.1,70,30.19,10.0,SSW,6.9,-,N/A,,Overcast,210,2012-12-03 18:53:00
2:21 PM,62.6,53.6,72,30.19,10.0,SSW,6.9,-,N/A,,Overcast,210,2012-12-03 19:21:00
2:53 PM,63.0,55.0,75,30.18,10.0,South,3.5,-,0.02,,Mostly Cloudy,170,2012-12-03 19:53:00
3:53 PM,64.0,55.0,73,30.17,10.0,SE,3.5,-,0.00,Rain,Light Rain,140,2012-12-03 20:53:00
4:53 PM,63.0,55.0,75,30.18,10.0,ESE,3.5,-,0.00,,Partly Cloudy,120,2012-12-03 21:53:00
5:53 PM,61.0,55.0,81,30.18,10.0,ESE,3.5,-,N/A,,Clear,120,2012-12-03 22:53:00
6:53 PM,57.0,54.0,89,30.19,9.0,Calm,Calm,-,N/A,,Partly Cloudy,0,2012-12-03 23:53:00
7:53 PM,57.9,54.0,87,30.19,10.0,SSE,3.5,-,N/A,,Clear,160,2012-12-04 00:53:00
8:53 PM,55.0,53.1,93,30.18,10.0,East,3.5,-,N/A,,Clear,100,2012-12-04 01:53:00
9:53 PM,52.0,52.0,100,30.18,10.0,Calm,Calm,-,N/A,,Clear,0,2012-12-04 02:53:00
10:53 PM,51.1,50.0,96,30.18,10.0,Calm,Calm,-,N/A,,Clear,0,2012-12-04 03:53:00
11:12 PM,51.8,50.0,94,30.18,2.0,SE,3.5,-,N/A,,Clear,140,2012-12-04 04:12:00
11:35 PM,51.8,51.8,100,30.18,6.0,South,5.8,-,N/A,,Clear,170,2012-12-04 04:35:00
11:53 PM,52.0,50.0,93,30.18,9.0,SSE,5.8,-,N/A,,Clear,160,2012-12-04 04:53:00